This is the latest recevied weather packets stored in our database for station/object W4KAB. If no packets are shown the sender has not sent any weather packets the latest 10 day(s).
| Time | Temp. | Humidity | Pressure | Rain* | Wind** | Luminosity | Snow |
|---|---|---|---|---|---|---|---|
| 1777692820 | 12.78° C | 80% | 1014.1 hPa | 0 mm | - | 0 W/m² | - |
| 1777692516 | 13.33° C | 80% | 1014.3 hPa | 0 mm | - | 0 W/m² | - |
| 1777692212 | 13.33° C | 79% | 1014.4 hPa | 0 mm | - | 0 W/m² | - |
| 1777691910 | 13.33° C | 79% | 1014.2 hPa | 0 mm | - | 0 W/m² | - |
| 1777691608 | 13.33° C | 79% | 1014.2 hPa | 0 mm | - | 0 W/m² | - |
| 1777691306 | 13.33° C | 78% | 1014.6 hPa | 0 mm | - | 0 W/m² | - |
| 1777691004 | 13.33° C | 79% | 1014.4 hPa | 0 mm | - | 0 W/m² | - |
| 1777690701 | 13.33° C | 78% | 1014.5 hPa | 0 mm | - | 0 W/m² | - |
| 1777690399 | 13.33° C | 78% | 1014.6 hPa | 0 mm | - | 0 W/m² | - |
| 1777690096 | 13.33° C | 78% | 1014.7 hPa | 0 mm | - | 0 W/m² | - |
| 1777689794 | 13.33° C | 78% | 1014.6 hPa | 0 mm | - | 0 W/m² | - |
| 1777689492 | 13.33° C | 77% | 1014.5 hPa | 0 mm | - | 0 W/m² | - |
| 1777689190 | 13.33° C | 77% | 1014.3 hPa | 0 mm | - | 0 W/m² | - |
| 1777688887 | 13.33° C | 76% | 1014.4 hPa | 0 mm | - | 0 W/m² | - |
| 1777688583 | 13.89° C | 76% | 1014.4 hPa | 0 mm | - | 0 W/m² | - |
| 1777688280 | 13.89° C | 76% | 1014.3 hPa | 0 mm | - | 0 W/m² | - |
| 1777687977 | 13.89° C | 75% | 1014.5 hPa | 0 mm | - | 0 W/m² | - |
| 1777687674 | 13.89° C | 73% | 1014.4 hPa | 0 mm | - | 0 W/m² | - |
| 1777687372 | 13.89° C | 75% | 1014 hPa | 0 mm | - | 0 W/m² | - |
| 1777687069 | 13.89° C | 73% | 1014 hPa | 0 mm | - | 0 W/m² | - |
| 1777686765 | 14.44° C | 75% | 1014 hPa | 0 mm | - | 0 W/m² | - |
| 1777686463 | 15° C | 70% | 1014 hPa | 0 mm | - | 0 W/m² | - |
| 1777686160 | 15° C | 69% | 1013.9 hPa | 0 mm | - | 0 W/m² | - |
| 1777685856 | 15° C | 70% | 1013.8 hPa | 0 mm | - | 0 W/m² | - |
| 1777685552 | 15° C | 71% | 1013.8 hPa | 0 mm | - | 0 W/m² | - |
* Rain latest hour (hover to see other rain measurements)
** Current wind speed in m/s (hover to see current wind gust speed)